Wind_Speed
1 2 2 2 2 3 4 4 4 4 4 5 5 6 5 5 5 4 4 2 1 1 2 3 4 5 5 6 5 4 4 4 3 4 4 4 5 5 6 6 7 7 7
2 2 3 2 3 3 4 4 5 4 4 5 5 5 5 4 4 4 3 2 1 0 1 3 4 4 5 6 5 4 4 4 4 4 4 5 5 6 6 7 7 8 7
3 3 3 3 4 4 5 5 5 5 5 5 6 5 5 5 5 4 4 3 2 2 2 2 3 4 4 5 5 5 4 4 5 5 4 5 5 5 6 7 7 7 7
4 4 4 4 4 5 5 6 6 6 6 6 6 6 6 6 6 5 4 4 4 3 4 4 5 5 5 5 5 5 5 5 5 5 5 5 5 5 5 6 6 7 7
5 5 5 5 5 5 6 6 6 6 6 6 6 6 6 6 5 5 6 6 6 5 5 5 6 6 6 6 6 6 6 6 6 6 6 6 6 5 5 6 7 7 7
6 6 5 6 6 6 6 6 6 7 7 7 6 7 7 7 7 7 6 7 7 7 8 7 7 7 7 8 7 7 7 7 6 6 6 6 6 6 6 6 6 7 7
7 7 7 7 7 7 7 6 6 6 6 6 6 7 7 7 7 9 9 7 7 7 7 7 8 8 8 8 8 8 7 7 7 6 6 7 7 7 7 7 7 7 7
8 8 8 8 8 8 7 7 7 7 7 7 6 6 6 7 7 8 7 5 5 6 6 6 7 8 7 8 8 8 8 8 7 6 6 7 8 8 8 8 8 8 8
9 9 9 9 9 8 8 8 7 7 7 6 6 6 6 6 6 6 5 4 5 5 6 6 7 6 7 7 8 8 8 8 8 7 7 7 8 8 8 9 9 9 9
9 9 9 9 9 9 8 8 8 7 6 6 5 5 6 6 6 6 5 5 5 5 5 6 6 7 6 7 7 7 8 8 9 8 7 7 8 9 8 9 9 9 10
9 9 9 9 9 8 8 8 7 7 6 6 5 5 6 6 6 5 5 5 5 6 6 6 6 7 6 7 7 7 8 8 8 8 8 8 8 9 9 10 10 10 11
9 8 8 8 8 8 8 8 7 7 7 7 6 6 6 6 6 6 5 6 6 6 6 6 7 7 7 7 7 7 8 8 8 8 8 8 9 9 10 10 10 9 11
9 8 8 8 7 7 7 8 8 8 8 8 8 8 8 7 7 7 7 7 7 7 7 7 7 7 8 8 8 8 8 9 9 9 9 9 9 10 10 10 9 10 10
8 9 9 9 7 7 7 8 8 8 8 9 9 9 9 8 9 8 8 9 8 8 7 7 8 8 8 8 9 10 10 10 10 10 10 10 10 10 10 10 9 10 11
8 8 8 8 8 8 7 7 8 8 8 9 9 9 9 9 9 9 9 9 9 9 8 8 8 8 8 8 9 10 10 11 11 10 10 11 11 11 10 10 10 11 11
9 8 8 7 8 7 7 8 8 8 9 8 8 8 9 9 10 10 9 9 9 9 9 9 9 9 9 9 10 10 10 11 11 11 12 12 12 12 11 12 12 11 11
8 8 7 7 7 8 8 8 9 9 9 9 9 9 10 10 10 10 10 9 9 9 9 10 9 10 10 10 10 10 10 11 11 11 12 12 12 12 12 12 12 12 11
8 8 8 8 8 9 9 9 9 9 9 10 10 10 10 11 11 11 11 10 10 10 10 11 11 11 10 10 11 11 11 11 11 11 12 12 13 13 12 13 13 13 12
9 8 8 9 9 9 10 11 11 10 10 10 11 11 11 11 11 10 11 11 11 11 11 11 11 11 11 11 11 11 11 11 11 12 12 13 13 13 13 13 13 12 13
9 9 9 9 9 10 10 10 10 10 10 11 11 11 10 10 10 10 11 11 12 12 12 12 12 12 12 12 11 11 11 12 12 13 13 13 14 14 13 13 13 14 14
10 10 10 9 9 10 10 10 11 11 11 12 12 12 11 11 11 11 12 12 12 12 12 13 13 13 13 12 12 12 12 13 13 13 13 14 13 14 14 14 14 15 15
11 11 10 9 10 10 11 11 11 12 12 13 13 13 13 13 12 12 12 13 13 13 13 13 13 14 13 13 13 13 13 13 13 13 13 14 14 14 14 15 15 16 16
11 11 10 10 10 11 11 12 12 12 13 13 13 13 13 14 14 13 13 14 13 13 13 13 13 13 13 14 14 14 14 14 14 14 14 14 15 15 15 16 16 16 16
12 12 12 11 12 12 12 12 12 13 13 14 14 14 14 14 14 14 14 15 15 14 14 14 14 14 15 15 15 14 15 15 14 15 15 15 15 15 15 15 16 16 17
13 13 13 13 13 13 13 13 13 13 13 14 14 14 14 15 15 15 15 16 16 15 15 15 16 16 16 16 16 16 16 16 16 17 16 16 16 16 16 16 16 17 17
13 14 14 14 14 14 13 13 13 13 13 14 14 14 14 15 16 16 15 15 16 16 16 16 16 16 16 17 18 18 18 18 18 18 18 17 17 17 17 17 17 17 17
Wind_Direction
347 344 342 342 349 349 349 353 356 356 0 5 3 358 358 1 359 358 341 320 327 217 196 194 192 188 193 201 204 214 220 231 242 242 247 253 249 243 244 243 241 233 227
310 315 315 320 326 330 333 339 339 335 339 341 347 350 350 345 340 341 330 327 325 313 211 204 203 202 205 209 210 219 222 232 242 245 254 263 265 264 258 246 239 233 237
304 305 308 311 316 318 321 324 332 334 332 327 329 330 332 331 329 331 323 315 305 283 259 238 214 207 213 218 225 227 235 245 244 248 261 270 271 269 256 249 239 232 243
298 298 303 311 316 313 313 316 319 323 324 324 319 317 318 320 316 309 298 290 287 268 254 246 231 226 223 225 231 233 243 245 243 258 265 277 281 272 250 243 242 241 242
291 294 301 307 310 311 311 313 313 314 317 316 314 313 312 314 308 300 289 275 263 257 254 247 236 231 232 234 234 239 245 245 245 248 259 274 278 271 249 246 247 248 249
287 288 295 301 304 303 304 308 310 311 314 311 309 309 306 306 302 302 292 277 266 259 252 248 243 238 234 235 235 242 248 248 246 247 253 262 266 267 263 258 260 253 252
285 286 289 292 295 292 292 297 303 310 313 310 305 304 305 306 307 304 300 286 271 262 258 252 249 245 240 240 238 243 245 249 252 252 253 257 257 261 264 265 263 255 251
280 281 283 285 287 287 285 288 292 296 302 306 301 296 300 309 313 315 310 292 274 270 266 258 258 248 243 246 245 247 247 248 246 254 260 261 259 262 262 262 264 259 254
280 282 285 284 282 283 282 283 285 289 292 297 303 295 301 309 315 319 317 298 284 281 272 264 262 258 252 253 253 249 245 246 250 255 264 267 264 265 264 265 263 259 252
281 282 285 286 284 282 280 280 283 285 286 288 299 307 308 308 314 314 314 305 294 288 277 272 266 266 262 260 259 257 254 253 255 258 267 270 270 270 266 262 259 260 254
286 286 287 288 286 283 278 275 273 274 275 279 287 302 310 309 313 310 305 293 284 284 282 278 271 263 264 264 257 255 255 255 259 260 263 265 268 271 271 264 260 261 254
285 287 290 286 284 282 276 271 267 266 269 275 282 289 299 305 304 303 295 290 288 287 283 274 271 267 265 264 260 257 260 262 262 263 262 264 266 269 272 267 263 258 254
284 284 284 285 285 280 278 272 267 269 272 272 278 280 287 295 297 296 291 289 290 285 280 272 269 270 267 266 265 262 265 263 261 263 263 265 270 271 273 272 265 262 257
288 287 283 279 278 278 276 270 265 266 270 273 278 278 284 289 287 288 286 288 285 281 279 275 271 268 268 267 267 266 265 264 262 264 264 265 270 271 270 266 264 262 261
288 288 286 274 275 275 272 269 269 267 267 269 274 275 279 281 283 285 284 279 283 279 277 275 272 271 271 271 271 269 268 265 266 263 264 264 266 267 268 264 268 266 262
285 286 282 272 273 274 270 268 268 266 266 273 278 284 281 279 284 283 281 280 280 278 276 273 273 275 275 274 274 272 268 266 267 265 266 265 265 267 268 269 269 271 266
285 283 281 276 274 273 271 270 269 272 273 275 279 283 280 279 283 285 281 277 278 280 281 277 277 279 279 278 278 273 269 268 270 267 265 264 264 264 266 269 269 268 265
280 278 276 278 274 271 269 270 271 272 274 276 277 280 282 281 282 282 279 273 274 277 278 276 275 277 279 280 278 275 273 269 267 266 266 266 266 264 265 267 268 266 261
278 276 275 276 278 278 276 276 276 275 276 277 276 279 281 280 279 280 278 273 272 274 276 276 275 276 277 276 276 272 269 266 267 268 267 266 265 265 265 265 266 268 264
276 276 277 277 279 281 281 280 278 279 280 280 278 280 281 278 278 280 280 276 271 271 273 274 274 274 273 273 272 271 270 270 271 269 268 267 266 265 265 266 268 269 266
278 278 278 276 280 283 284 283 280 279 281 281 281 278 276 277 277 280 280 279 274 271 272 273 273 272 269 268 270 269 270 271 272 269 268 266 265 263 264 263 265 266 265
275 277 277 275 279 282 284 282 280 279 280 281 282 280 277 277 279 282 281 278 276 274 275 275 275 272 270 270 271 271 272 271 271 269 268 265 266 265 264 263 264 264 263
269 271 273 275 278 280 283 284 284 284 283 284 283 282 281 281 279 282 282 279 279 278 279 277 274 272 272 273 273 274 272 271 269 269 269 269 268 266 265 265 263 264 261
266 267 270 275 278 279 280 281 283 285 284 284 284 285 283 281 279 280 282 281 281 279 278 278 276 274 274 273 273 274 274 273 269 268 269 268 268 266 266 267 263 263 263
265 265 268 271 277 280 280 279 281 285 285 285 286 285 283 280 280 281 283 281 279 279 278 279 278 275 274 274 274 275 275 274 271 270 269 267 266 266 266 266 266 266 265
269 268 268 269 272 276 278 279 282 284 285 287 288 286 283 280 281 282 281 281 279 279 279 278 278 277 274 273 274 273 273 272 269 268 266 266 265 265 266 267 267 267 268
Height
5869 5869 5869 5868 5868 5868 5867 5867 5867 5867 5866 5866 5865 5864 5863 5862 5862 5862 5861 5861 5861 5861 5862 5864 5866 5867 5868 5869 5870 5871 5872 5873 5873 5874 5874 5874 5874 5873 5874 5874 5875 5875 5876
5869 5868 5868 5868 5868 5868 5867 5867 5867 5866 5866 5866 5865 5864 5863 5862 5862 5862 5862 5861 5862 5862 5863 5864 5865 5867 5868 5869 5870 5871 5871 5872 5872 5872 5872 5872 5871 5871 5871 5872 5873 5874 5875
5868 5868 5868 5868 5868 5867 5867 5867 5867 5866 5865 5865 5865 5864 5863 5863 5862 5862 5861 5861 5861 5862 5863 5864 5865 5866 5867 5868 5869 5870 5870 5871 5871 5871 5871 5871 5870 5868 5868 5869 5871 5873 5874
5868 5868 5868 5867 5867 5867 5867 5866 5866 5865 5865 5864 5864 5863 5863 5862 5862 5861 5860 5860 5861 5861 5862 5863 5864 5865 5866 5867 5868 5869 5869 5870 5870 5870 5870 5869 5868 5866 5866 5868 5870 5872 5872
5867 5867 5867 5867 5866 5866 5866 5865 5865 5865 5864 5864 5863 5863 5862 5862 5861 5860 5858 5859 5859 5860 5861 5862 5863 5864 5865 5866 5867 5868 5868 5869 5869 5869 5869 5868 5868 5866 5866 5868 5869 5871 5871
5866 5866 5866 5865 5865 5865 5865 5864 5864 5863 5863 5863 5862 5862 5861 5860 5859 5858 5857 5856 5857 5858 5860 5861 5862 5863 5864 5865 5865 5866 5867 5867 5867 5868 5868 5868 5868 5867 5867 5868 5869 5870 5870
5865 5865 5864 5864 5864 5864 5863 5863 5862 5862 5862 5862 5861 5861 5860 5859 5858 5856 5853 5852 5854 5856 5858 5859 5860 5861 5862 5863 5864 5864 5865 5866 5866 5866 5866 5867 5867 5867 5868 5868 5868 5869 5869
5863 5863 5863 5862 5862 5862 5862 5861 5861 5861 5861 5860 5860 5859 5859 5858 5857 5854 5851 5850 5852 5855 5857 5858 5859 5860 5861 5861 5862 5863 5863 5864 5865 5865 5865 5865 5866 5866 5866 5867 5867 5868 5868
5861 5861 5861 5860 5860 5860 5860 5860 5859 5859 5859 5859 5858 5858 5858 5857 5856 5855 5853 5852 5853 5855 5856 5857 5858 5858 5859 5860 5861 5861 5862 5863 5863 5864 5864 5864 5864 5865 5865 5865 5866 5866 5866
5859 5859 5859 5858 5858 5858 5858 5857 5858 5857 5858 5858 5857 5857 5857 5856 5855 5855 5854 5854 5854 5855 5855 5856 5856 5857 5858 5859 5859 5860 5860 5861 5862 5862 5862 5863 5863 5863 5863 5864 5864 5864 5865
5858 5857 5856 5856 5856 5855 5855 5855 5855 5855 5856 5856 5856 5856 5856 5855 5855 5855 5854 5854 5854 5854 5854 5855 5855 5856 5856 5857 5858 5858 5859 5859 5860 5860 5860 5861 5861 5861 5862 5862 5862 5862 5863
5856 5855 5854 5853 5853 5852 5852 5852 5853 5853 5854 5854 5854 5855 5855 5854 5854 5854 5853 5853 5853 5853 5853 5854 5854 5854 5855 5855 5856 5856 5857 5857 5858 5858 5859 5859 5859 5859 5859 5859 5860 5860 5861
5854 5853 5852 5851 5851 5850 5850 5850 5851 5852 5852 5852 5852 5853 5853 5853 5853 5852 5852 5852 5852 5852 5852 5852 5853 5853 5853 5853 5854 5854 5855 5855 5856 5856 5856 5857 5857 5857 5857 5857 5857 5858 5858
5852 5851 5850 5849 5849 5848 5848 5848 5849 5850 5850 5850 5850 5851 5851 5851 5851 5851 5851 5850 5850 5850 5850 5851 5851 5851 5851 5851 5852 5852 5852 5853 5853 5853 5854 5854 5854 5855 5855 5855 5855 5855 5856
5850 5850 5848 5847 5847 5847 5847 5847 5847 5848 5848 5848 5848 5849 5849 5849 5849 5848 5849 5848 5848 5848 5849 5848 5849 5849 5849 5849 5849 5849 5850 5850 5850 5851 5851 5852 5852 5852 5852 5853 5853 5853 5853
5848 5848 5847 5845 5845 5845 5845 5845 5845 5846 5846 5846 5847 5847 5847 5847 5847 5846 5846 5846 5846 5846 5846 5846 5846 5847 5847 5847 5847 5847 5847 5847 5848 5848 5848 5849 5849 5849 5850 5850 5850 5850 5851
5846 5846 5845 5844 5843 5843 5843 5843 5843 5844 5844 5844 5845 5845 5844 5844 5844 5844 5844 5844 5844 5844 5844 5844 5844 5844 5844 5844 5844 5844 5844 5844 5845 5845 5845 5846 5846 5847 5847 5847 5847 5847 5848
5844 5844 5843 5842 5842 5841 5841 5841 5841 5842 5842 5842 5842 5842 5842 5842 5841 5841 5841 5841 5841 5841 5841 5842 5841 5841 5841 5841 5841 5841 5841 5842 5842 5842 5842 5843 5843 5844 5844 5844 5844 5844 5845
5842 5842 5841 5840 5840 5840 5840 5839 5839 5839 5840 5840 5840 5839 5839 5839 5838 5838 5838 5838 5838 5839 5839 5839 5839 5839 5839 5839 5839 5839 5839 5839 5839 5839 5840 5840 5840 5840 5841 5841 5841 5841 5841
5839 5839 5839 5838 5838 5838 5837 5837 5837 5837 5837 5837 5837 5836 5836 5836 5836 5835 5835 5835 5835 5835 5836 5836 5836 5836 5836 5836 5836 5836 5836 5836 5836 5836 5836 5836 5836 5837 5837 5838 5838 5838 5838
5837 5837 5836 5836 5836 5835 5835 5835 5835 5834 5834 5834 5834 5833 5833 5833 5833 5833 5833 5832 5832 5832 5832 5832 5832 5832 5832 5832 5833 5833 5833 5833 5833 5833 5833 5833 5833 5833 5833 5834 5834 5834 5835
5834 5834 5834 5834 5833 5833 5833 5832 5832 5832 5832 5831 5831 5830 5830 5830 5830 5830 5829 5829 5829 5829 5829 5828 5828 5828 5828 5829 5829 5829 5829 5830 5829 5829 5829 5829 5829 5829 5829 5830 5830 5830 5830
5832 5832 5831 5831 5831 5830 5830 5830 5829 5829 5829 5828 5828 5827 5827 5826 5826 5826 5826 5825 5825 5825 5825 5825 5824 5825 5825 5825 5825 5826 5825 5825 5825 5825 5825 5825 5825 5825 5825 5825 5825 5826 5826
5829 5829 5829 5828 5828 5828 5827 5827 5827 5826 5826 5825 5824 5824 5823 5823 5822 5822 5822 5821 5821 5821 5821 5821 5821 5821 5821 5821 5821 5821 5821 5821 5821 5821 5821 5821 5821 5821 5821 5821 5821 5821 5821
5826 5826 5826 5826 5825 5825 5824 5824 5823 5823 5822 5821 5821 5820 5819 5819 5819 5818 5818 5817 5817 5817 5817 5817 5817 5816 5817 5817 5817 5816 5816 5816 5816 5817 5817 5817 5817 5817 5817 5816 5816 5817 5816
5822 5822 5822 5822 5822 5822 5821 5821 5820 5819 5819 5818 5817 5816 5816 5815 5815 5814 5814 5813 5813 5813 5813 5813 5812 5812 5812 5812 5812 5812 5811 5811 5811 5812 5812 5812 5812 5812 5812 5812 5812 5812 5812